This is the latest recevied weather packets stored in our database for station/object IR1BY-3. If no packets are shown the sender has not sent any weather packets the latest 10 day(s).
| Time | Temp. | Humidity | Pressure | Rain* | Wind** | Luminosity | Snow |
|---|---|---|---|---|---|---|---|
| 1776926427 | 13.89° C | 99% | 1022.3 hPa | - | - | - | - |
| 1776924626 | 11.11° C | 99% | 1022.2 hPa | - | - | - | - |
| 1776922826 | 8.33° C | 99% | 1022 hPa | - | - | - | - |
| 1776921187 | 7.22° C | 99% | 1021.8 hPa | - | - | - | - |
| 1776919387 | 7.22° C | 99% | 1021.8 hPa | - | - | - | - |
| 1776917587 | 6.67° C | 99% | 1021.6 hPa | - | - | - | - |
| 1776915787 | 7.22° C | 99% | 1021.4 hPa | - | - | - | - |
| 1776913986 | 7.22° C | 99% | 1021.4 hPa | - | - | - | - |
| 1776912186 | 7.22° C | 99% | 1021.4 hPa | - | - | - | - |
| 1776910386 | 7.22° C | 99% | 1021.3 hPa | - | - | - | - |
| 1776908585 | 7.22° C | 99% | 1021.3 hPa | - | - | - | - |
| 1776906785 | 7.22° C | 99% | 1021.3 hPa | - | - | - | - |
| 1776904985 | 7.22° C | 99% | 1021 hPa | - | - | - | - |
| 1776903184 | 7.22° C | 99% | 1021 hPa | - | - | - | - |
| 1776901384 | 7.22° C | 99% | 1021 hPa | - | - | - | - |
| 1776899584 | 7.22° C | 99% | 1020.9 hPa | - | - | - | - |
| 1776897783 | 7.78° C | 99% | 1020.6 hPa | - | - | - | - |
| 1776895983 | 7.78° C | 99% | 1020.3 hPa | - | - | - | - |
| 1776894183 | 7.78° C | 99% | 1020 hPa | - | - | - | - |
| 1776892382 | 7.78° C | 99% | 1019.9 hPa | - | - | - | - |
| 1776890582 | 7.78° C | 99% | 1019.4 hPa | - | - | - | - |
| 1776888782 | 7.78° C | 99% | 1019.1 hPa | - | - | - | - |
| 1776886982 | 7.78° C | 99% | 1019 hPa | - | - | - | - |
| 1776885181 | 8.33° C | 99% | 1018.3 hPa | - | - | - | - |
| 1776883381 | 8.33° C | 99% | 1017.9 hPa | - | - | - | - |
* Rain since midnight (hover to see other rain measurements)
** Current wind speed in m/s (hover to see current wind gust speed)